Monroe, MI

4:41 PM EDT on April 26, 2017 (GMT -0400)
Custer

Weather History for KTTF - May, 2014

Change the Weather History Date:

Friday, May 2, 2014

  Actual Average Record
Temperature  
Mean Temperature 50 °F -  
Max Temperature 55 °F 66 °F 89 °F (1942)
Min Temperature 44 °F 43 °F 30 °F (1997)
Degree Days  
Heating Degree Days 16    
Moisture  
Dew Point 43 °F    
Average Humidity 77    
Maximum Humidity 93    
Minimum Humidity 62    
Precipitation  
Precipitation 0.00 in - - ()
Sea Level Pressure  
Sea Level Pressure 29.78 in    
Wind  
Wind Speed 14 mph (WSW)    
Max Wind Speed 20 mph    
Max Gust Speed 24 mph    
Visibility 10 miles    
Events Rain    
Averages and records for this station are not official NWS values.
T = Trace of Precipitation, MM = Missing Value Source: NWS Daily Summary

Daily Weather History Graph

Daily Weather History Graph

Search for Another Location

Airport or City:

Trip Planner

Search our weather history database for the weather conditions in past years. The results will help you decide how hot, cold, wet, or windy it might be!

Date:

Astronomy

May. 02, 2014 Rise Set
Actual Time 6:28 AM EDT 8:33 PM EDT
Civil Twilight 5:58 AM EDT 9:04 PM EDT
Nautical Twilight 5:20 AM EDT 9:41 PM EDT
Astronomical Twilight 4:39 AM EDT 10:22 PM EDT
Moon 9:03 AM EDT (5/2) 11:55 PM EDT (5/2)
Length of Visible Light 15h 06m
Length of Day
14h 05m
Waxing Crescent, 12% of the Moon is Illuminated
May 2
Waxing Crescent
May 6
First Quarter
May 14
Full
May 21
Last Quarter
May 28
New

Hourly Weather History & Observations

Time (EDT) Temp. Windchill Dew Point Humidity Pressure Visibility Wind Dir Wind Speed Gust Speed Precip Events Conditions
12:13 AM 46.4 °F 39.8 °F 41.0 °F 81% 29.77 in 10.0 mi WSW 16.1 mph 20.7 mph N/A   Overcast
12:33 AM 46.4 °F 39.8 °F 42.8 °F 87% 29.76 in 10.0 mi WSW 16.1 mph 23.0 mph N/A   Overcast
12:54 AM 46.4 °F 39.5 °F 42.8 °F 87% 29.76 in 10.0 mi WSW 17.3 mph 21.9 mph N/A   Overcast
1:14 AM 46.4 °F 39.2 °F 42.8 °F 87% 29.76 in 5.0 mi WSW 18.4 mph - N/A   Haze
1:34 AM 46.4 °F 40.7 °F 42.8 °F 87% 29.76 in 10.0 mi WSW 12.7 mph 20.7 mph N/A   Overcast
1:54 AM 46.4 °F 40.7 °F 42.8 °F 87% 29.76 in 10.0 mi WSW 12.7 mph 18.4 mph N/A   Overcast
2:14 AM 46.4 °F 40.7 °F 42.8 °F 87% 29.75 in 10.0 mi WSW 12.7 mph - N/A   Overcast
2:34 AM 46.4 °F 40.4 °F 42.8 °F 87% 29.75 in 10.0 mi WSW 13.8 mph 18.4 mph N/A   Overcast
2:54 AM 46.4 °F 41.1 °F 42.8 °F 87% 29.75 in 10.0 mi WSW 11.5 mph - N/A   Overcast
3:14 AM 46.4 °F 40.7 °F 42.8 °F 87% 29.74 in 10.0 mi WSW 12.7 mph 17.3 mph N/A   Overcast
3:34 AM 46.4 °F 41.1 °F 42.8 °F 87% 29.74 in 10.0 mi WSW 11.5 mph - N/A   Overcast
3:54 AM 46.4 °F 41.1 °F 42.8 °F 87% 29.74 in 10.0 mi WSW 11.5 mph - N/A   Overcast
4:15 AM 46.4 °F 41.5 °F 42.8 °F 87% 29.74 in 10.0 mi WSW 10.4 mph - N/A   Mostly Cloudy
4:35 AM 44.6 °F 39.2 °F 42.8 °F 93% 29.75 in 10.0 mi WSW 10.4 mph - N/A   Scattered Clouds
4:55 AM 44.6 °F 39.7 °F 42.8 °F 93% 29.74 in 10.0 mi SW 9.2 mph - N/A   Mostly Cloudy
5:15 AM 44.6 °F 39.2 °F 42.8 °F 93% 29.74 in 10.0 mi WSW 10.4 mph - N/A   Overcast
5:35 AM 44.6 °F 39.2 °F 42.8 °F 93% 29.74 in 10.0 mi SW 10.4 mph - N/A   Overcast
5:55 AM 46.4 °F 41.1 °F 42.8 °F 87% 29.74 in 10.0 mi SW 11.5 mph - N/A   Overcast
6:15 AM 46.4 °F 40.4 °F 41.0 °F 81% 29.75 in 10.0 mi SW 13.8 mph - N/A   Overcast
6:35 AM 46.4 °F 40.4 °F 41.0 °F 81% 29.75 in 10.0 mi SW 13.8 mph - N/A   Overcast
6:55 AM 46.4 °F 40.4 °F 42.8 °F 87% 29.75 in 10.0 mi WSW 13.8 mph 19.6 mph N/A   Overcast
7:16 AM 46.4 °F 41.1 °F 42.8 °F 87% 29.76 in 10.0 mi WSW 11.5 mph 18.4 mph N/A   Overcast
7:36 AM 46.4 °F 40.7 °F 42.8 °F 87% 29.76 in 10.0 mi SW 12.7 mph - N/A   Overcast
7:56 AM 46.4 °F 40.1 °F 42.8 °F 87% 29.76 in 10.0 mi WSW 15.0 mph - N/A   Overcast
8:16 AM 46.4 °F 40.7 °F 42.8 °F 87% 29.76 in 10.0 mi WSW 12.7 mph 20.7 mph N/A   Overcast
8:36 AM 48.2 °F - 42.8 °F 82% 29.77 in 10.0 mi WSW 15.0 mph 18.4 mph N/A   Overcast
8:56 AM 48.2 °F - 42.8 °F 82% 29.77 in 10.0 mi WSW 12.7 mph - N/A   Overcast
9:11 AM 48.2 °F - 42.8 °F 82% 29.78 in 10.0 mi WSW 16.1 mph 21.9 mph N/A   Overcast
9:31 AM 48.2 °F - 42.8 °F 82% 29.78 in 10.0 mi WSW 12.7 mph 20.7 mph N/A   Overcast
9:51 AM 48.2 °F - 42.8 °F 82% 29.78 in 10.0 mi WSW 13.8 mph 19.6 mph N/A   Overcast
10:12 AM 48.2 °F - 42.8 °F 82% 29.78 in 10.0 mi WSW 17.3 mph 21.9 mph N/A   Overcast
10:32 AM 48.2 °F - 42.8 °F 82% 29.79 in 10.0 mi WSW 15.0 mph 19.6 mph N/A   Overcast
10:52 AM 50.0 °F - 42.8 °F 76% 29.79 in 10.0 mi WSW 12.7 mph 17.3 mph N/A   Overcast
11:12 AM 51.8 °F - 44.6 °F 76% 29.79 in 10.0 mi WSW 11.5 mph - N/A   Overcast
11:32 AM 53.6 °F - 44.6 °F 72% 29.80 in 10.0 mi WSW 15.0 mph - N/A   Overcast
11:52 AM 51.8 °F - 42.8 °F 71% 29.80 in 10.0 mi WSW 10.4 mph 20.7 mph N/A   Overcast
12:12 PM 55.4 °F - 44.6 °F 67% 29.80 in 10.0 mi WSW 16.1 mph 21.9 mph N/A   Overcast
12:32 PM 55.4 °F - 44.6 °F 67% 29.79 in 10.0 mi WSW 15.0 mph 21.9 mph N/A   Overcast
12:52 PM 53.6 °F - 44.6 °F 72% 29.79 in 10.0 mi West 15.0 mph 18.4 mph N/A   Overcast
1:12 PM 53.6 °F - 44.6 °F 72% 29.79 in 10.0 mi WSW 18.4 mph - N/A   Overcast
1:33 PM 53.6 °F - 44.6 °F 72% 29.80 in 10.0 mi WSW 15.0 mph 23.0 mph N/A   Overcast
1:53 PM 53.6 °F - 44.6 °F 72% 29.79 in 10.0 mi WSW 17.3 mph - N/A   Overcast
2:13 PM 55.4 °F - 44.6 °F 67% 29.79 in 10.0 mi WSW 18.4 mph 24.2 mph N/A   Overcast
2:33 PM 55.4 °F - 44.6 °F 67% 29.79 in 10.0 mi WSW 13.8 mph 23.0 mph N/A   Overcast
2:55 PM 55.4 °F - 44.6 °F 67% 29.79 in 10.0 mi West 17.3 mph 23.0 mph N/A   Overcast
3:16 PM 55.4 °F - 44.6 °F 67% 29.78 in 10.0 mi SW 16.1 mph 21.9 mph N/A   Overcast
3:36 PM 55.4 °F - 44.6 °F 67% 29.78 in 10.0 mi WSW 15.0 mph - N/A   Overcast
3:56 PM 53.6 °F - 44.6 °F 72% 29.78 in 10.0 mi WSW 13.8 mph - N/A   Overcast
4:16 PM 53.6 °F - 44.6 °F 72% 29.78 in 10.0 mi WSW 17.3 mph 21.9 mph N/A   Overcast
4:36 PM 53.6 °F - 44.6 °F 72% 29.78 in 10.0 mi WSW 11.5 mph 21.9 mph N/A   Overcast
4:56 PM 53.6 °F - 44.6 °F 72% 29.78 in 10.0 mi WSW 13.8 mph 21.9 mph N/A   Overcast
5:11 PM 53.6 °F - 44.6 °F 72% 29.78 in 10.0 mi WSW 15.0 mph 20.7 mph N/A   Overcast
5:31 PM 53.6 °F - 42.8 °F 67% 29.78 in 10.0 mi WSW 19.6 mph - N/A   Overcast
5:51 PM 53.6 °F - 42.8 °F 67% 29.79 in 10.0 mi WSW 12.7 mph - N/A   Overcast
6:11 PM 53.6 °F - 42.8 °F 67% 29.79 in 10.0 mi WSW 11.5 mph - N/A   Overcast
6:32 PM 53.6 °F - 42.8 °F 67% 29.79 in 10.0 mi WSW 12.7 mph 19.6 mph N/A   Mostly Cloudy
6:52 PM 53.6 °F - 42.8 °F 67% 29.79 in 10.0 mi WSW 15.0 mph 24.2 mph N/A   Overcast
7:12 PM 53.6 °F - 42.8 °F 67% 29.79 in 10.0 mi SW 11.5 mph - N/A   Overcast
7:32 PM 53.6 °F - 42.8 °F 67% 29.79 in 10.0 mi SW 11.5 mph - N/A   Overcast
8:12 PM 53.6 °F - 41.0 °F 62% 29.79 in 10.0 mi SW 8.1 mph - N/A   Overcast
8:32 PM 53.6 °F - 41.0 °F 62% 29.79 in 10.0 mi SW 10.4 mph - N/A   Overcast
8:52 PM 53.6 °F - 41.0 °F 62% 29.80 in 10.0 mi SW 8.1 mph - N/A   Overcast
9:12 PM 51.8 °F - 41.0 °F 67% 29.80 in 10.0 mi WSW 9.2 mph - N/A   Overcast
9:33 PM 51.8 °F - 41.0 °F 67% 29.80 in 10.0 mi SW 10.4 mph - N/A   Overcast
9:53 PM 51.8 °F - 41.0 °F 67% 29.80 in 10.0 mi SW 12.7 mph 17.3 mph N/A   Overcast
10:13 PM 51.8 °F - 41.0 °F 67% 29.80 in 10.0 mi SW 11.5 mph - N/A   Overcast
10:33 PM 51.8 °F - 41.0 °F 67% 29.80 in 10.0 mi SW 11.5 mph 16.1 mph N/A   Overcast
10:53 PM 51.8 °F - 41.0 °F 67% 29.80 in 10.0 mi SW 11.5 mph - N/A   Light Drizzle
11:13 PM 51.8 °F - 42.8 °F 71% 29.80 in 10.0 mi SW 9.2 mph - N/A   Overcast
11:33 PM 51.8 °F - 42.8 °F 71% 29.80 in 10.0 mi SW 10.4 mph - N/A   Overcast
11:53 PM 50.0 °F - 42.8 °F 76% 29.80 in 10.0 mi WSW 13.8 mph - N/A Rain Light Rain